Volver al catálogo

STARLINK-32922

ActivoComunicacionesVLEO
NORAD 62926·PAYLOAD·🇺🇸 United States

Lanzado Feb 8, 2025 desde Cape Canaveral Space Force Station

Loading…

Próximos Pases (próximas 24 horas)

TLE

ActualizadoSource: CelesTrak SupGP

Época: Sep 14, 2026, 22:43 UTC

1 62926C 25027V   26257.94701389 -.00053427  00000+0 -19357-2 0  2570
2 62926  43.0018 140.2025 0001322 272.4410 134.0671 15.27594868    13

Sigue STARLINK-32922 en tiempo real con AllMySat

Download on the App Store